TimeEST,TemperatureF,Dew PointF,Humidity,Sea Level PressureIn,VisibilityMPH,Wind Direction,Wind SpeedMPH,Gust SpeedMPH,PrecipitationIn,Events,Conditions,WindDirDegrees,DateUTC
12:53 AM,43.0,36.0,76,29.69,10.0,WNW,4.6,-,N/A,,Overcast,290,2012-11-04 04:53:00
1:53 AM,43.0,36.0,76,29.69,10.0,WNW,6.9,-,N/A,,Overcast,300,2012-11-04 05:53:00
1:53 AM,43.0,36.0,76,29.70,10.0,WNW,8.1,-,N/A,,Mostly Cloudy,290,2012-11-04 06:53:00
2:53 AM,43.0,37.0,80,29.70,10.0,West,8.1,-,N/A,,Overcast,280,2012-11-04 07:53:00
3:53 AM,43.0,37.0,80,29.71,10.0,NW,6.9,-,N/A,,Overcast,310,2012-11-04 08:53:00
4:53 AM,43.0,36.0,76,29.73,10.0,NW,10.4,16.1,N/A,,Overcast,310,2012-11-04 09:53:00
5:53 AM,43.0,36.0,76,29.74,10.0,WNW,5.8,-,N/A,,Overcast,300,2012-11-04 10:53:00
6:53 AM,43.0,35.1,74,29.76,10.0,WNW,6.9,-,N/A,,Mostly Cloudy,300,2012-11-04 11:53:00
7:53 AM,43.0,35.1,74,29.77,10.0,WNW,6.9,-,N/A,,Mostly Cloudy,300,2012-11-04 12:53:00
8:44 AM,42.8,35.6,76,29.78,10.0,NW,9.2,-,N/A,,Mostly Cloudy,310,2012-11-04 13:44:00
8:53 AM,43.0,35.1,74,29.78,10.0,NW,8.1,-,N/A,,Mostly Cloudy,310,2012-11-04 13:53:00
9:53 AM,44.1,34.0,68,29.79,10.0,NW,13.8,21.9,N/A,,Mostly Cloudy,310,2012-11-04 14:53:00
10:53 AM,45.0,33.1,63,29.79,10.0,NNW,17.3,-,N/A,,Mostly Cloudy,330,2012-11-04 15:53:00
11:53 AM,45.0,33.1,63,29.78,10.0,NNW,16.1,-,N/A,,Mostly Cloudy,330,2012-11-04 16:53:00
12:53 PM,46.0,33.1,61,29.78,10.0,NNW,15.0,-,N/A,,Overcast,330,2012-11-04 17:53:00
1:53 PM,45.0,30.9,58,29.79,10.0,NNW,18.4,-,N/A,,Overcast,330,2012-11-04 18:53:00
2:53 PM,44.1,30.9,60,29.81,10.0,NNW,11.5,-,N/A,,Overcast,330,2012-11-04 19:53:00
3:53 PM,42.1,30.0,62,29.83,10.0,NNW,16.1,-,N/A,,Overcast,330,2012-11-04 20:53:00
4:53 PM,39.9,30.0,68,29.85,10.0,NNW,13.8,-,N/A,,Overcast,330,2012-11-04 21:53:00
5:53 PM,39.9,30.0,68,29.86,10.0,NW,12.7,17.3,N/A,,Overcast,310,2012-11-04 22:53:00
6:53 PM,39.0,28.9,67,29.88,10.0,WNW,8.1,17.3,N/A,,Overcast,300,2012-11-04 23:53:00
7:53 PM,37.9,28.0,68,29.89,10.0,NW,10.4,17.3,N/A,,Overcast,310,2012-11-05 00:53:00
8:53 PM,37.0,28.0,70,29.90,10.0,WNW,10.4,-,N/A,,Overcast,300,2012-11-05 01:53:00
9:53 PM,36.0,26.1,67,29.90,10.0,NW,10.4,-,N/A,,Overcast,310,2012-11-05 02:53:00
10:53 PM,36.0,26.1,67,29.91,10.0,NW,9.2,-,N/A,,Overcast,310,2012-11-05 03:53:00